This demonstration page uses our WeatherBlox Daily Observations layout. Learn more.

Left ArrowRight Arrow

38.83388, -104.82136

Hourly Observations for November 26, 2022

Temp ( °F °C ) Dew Point ( °F °C ) Humidity (%) Winds ( mph kmh ) Pressure ( in mb ) Visibility ( mi km ) Precip ( " mm )
12:55 am 00:55 Clear 43 6.1 17 -8.2 35 35 Calm 29.31 993 10 16 0.00 0.00
1:55 am 01:55 Clear 43 6 16 -9.1 33 33 S 10 17 29.30 992 10 16 0.00 0.00
2:55 am 02:55 Clear 36 2.2 12 -11 37 37 S 5 7 29.25 991 10 16 0.00 0.00
3:55 am 03:55 Clear 37 2.9 11 -11.4 34 34 Calm 29.23 990 10 16 0.00 0.00
4:55 am 04:55 Clear 37 2.9 16 -8.8 42 42 N 3 6 29.19 989 10 16 0.00 0.00
5:55 am 05:55 Clear 40 4.4 16 -8.7 38 38 NW 6 9 29.23 990 10 16 0.00 0.00
6:55 am 06:55 Sunny 42 5.7 17 -8.6 35 35 WNW 5 7 29.23 990 10 16 0.00 0.00
7:55 am 07:55 Sunny 50 10.1 13 -10.7 22 22 NNW 9 15 29.35 994 10 16 0.00 0.00
8:55 am 08:55 Sunny 50 10.2 13 -10.6 22 22 NNE 7 11 29.47 998 10 16 0.00 0.00
9:55 am 09:55 Sunny 52 11.1 13 -10.4 21 21 N 13 20 29.50 999 10 16 0.00 0.00
10:55 am 10:55 Sunny 54 12.3 11 -11.4 18 18 N 9 15 29.50 999 10 16 0.00 0.00
11:55 am 11:55 Sunny 55 12.8 12 -11 18 18 NNE 7 11 29.48 998 10 16 0.00 0.00
12:55 pm 12:55 Sunny 55 13 13 -10.8 18 18 N 13 20 29.47 998 10 16 0.00 0.00
1:55 pm 13:55 Sunny 54 12.1 18 -7.9 24 24 NNE 14 22 29.41 996 10 16 0.00 0.00
2:55 pm 14:55 Sunny 49 9.6 15 -9.5 25 25 N 17 28 29.30 992 10 16 0.00 0.00
3:55 pm 15:55 Mostly Sunny 47 8.5 16 -9 28 28 N 17 28 29.25 990 10 16 0.00 0.00
4:55 pm 16:55 Partly Cloudy 45 7.3 16 -8.7 31 31 NNW 18 30 29.20 989 10 16 0.00 0.00
5:55 pm 17:55 Mostly Cloudy 42 5.8 17 -8.1 36 36 NNW 17 28 29.17 988 10 16 0.00 0.00
6:55 pm 18:55 Partly Cloudy 42 5.3 18 -7.9 38 38 NNW 17 28 29.15 987 10 16 0.00 0.00
7:55 pm 19:55 Mostly Clear 39 3.7 18 -7.7 43 43 NNW 20 31 29.08 985 10 16 0.00 0.00
8:55 pm 20:55 Cloudy 38 3.2 18 -7.6 45 45 NNW 13 20 29.06 984 10 16 0.00 0.00
9:55 pm 21:55 Cloudy 37 2.9 19 -7 48 48 NNW 13 20 29.06 984 10 16 0.00 0.00
10:55 pm 22:55 Cloudy 36 2.1 20 -6.7 52 52 N 9 15 29.04 983 10 16 0.00 0.00
10:59 pm 22:59 Cloudy with Light Rain 36 2 21 -6 55 55 N 16 26 29.05 984 10 16 0.00 0.00
11:09 pm 23:09 Cloudy with Light Sleet 34 1 23 -5 64 64 N 14 22 29.03 983 10 16 0.00 0.00
11:22 pm 23:22 Cloudy with Light Rain 34 1 23 -5 64 64 N 13 20 29.01 982 10 16 0.00 0.00
11:25 pm 23:25 Cloudy with Light Sleet 34 1 23 -5 64 64 N 14 22 29.01 982 10 16 0.00 0.00
11:32 pm 23:32 Cloudy with Light Snow 34 1 23 -5 64 64 NNW 12 19 29.00 982 9 14 0.00 0.00
11:45 pm 23:45 Cloudy with Light Sleet 34 1 25 -4 69 69 NNW 13 20 28.99 982 9 14 0.00 0.00
11:47 pm 23:47 Cloudy with Light Snow 34 1 25 -4 69 69 NNW 14 22 28.99 982 9 14 0.00 0.00
11:55 pm 23:55 Cloudy with Light Snow 32 0.1 24 -4.2 73 73 N 15 24 29.00 982 8 13 0.01 0.13

Powered by AerisWeather